Date,TemperatureHighF,TemperatureAvgF,TemperatureLowF,DewpointHighF,DewpointAvgF,DewpointLowF,HumidityHigh,HumidityAvg,HumidityLow,PressureMaxIn,PressureMinIn,WindSpeedMaxMPH,WindSpeedAvgMPH,GustSpeedMaxMPH,PrecipitationSumIn
2013-1-1,36,32,28,27,21,14,78,66,45,30.35,30.27,5,1,8,0.00
2013-1-2,39,29,24,26,17,10,78,62,32,30.27,30.12,4,1,7,0.00
2013-1-3,40,32,22,23,17,11,77,56,32,30.21,30.09,4,0,6,0.00
2013-1-4,55,42,34,36,25,21,74,54,27,30.27,30.12,5,0,6,0.00
2013-1-5,42,37,33,34,30,26,79,77,74,30.15,30.09,5,0,7,0.00
2013-1-6,51,42,36,41,29,19,79,62,30,30.18,30.09,6,0,9,0.08
2013-1-7,52,47,42,43,38,34,79,72,52,30.18,30.03,4,0,6,0.55
2013-1-8,54,48,42,43,33,26,79,57,35,30.18,29.88,8,1,11,0.12
2013-1-9,49,40,34,40,28,19,79,64,38,29.94,29.73,10,1,13,0.36
2013-1-10,40,36,32,30,26,17,79,68,42,30.06,29.94,5,0,7,0.19
2013-1-11,39,33,28,32,22,14,79,66,39,30.24,30.06,5,0,8,0.04
2013-1-12,38,29,23,25,17,9,76,64,31,30.32,30.21,6,1,8,0.00
2013-1-13,32,28,25,22,13,8,76,53,38,30.41,30.32,5,1,7,0.00
2013-1-14,41,32,26,18,13,8,56,45,28,30.47,30.38,5,0,8,0.00
2013-1-15,39,33,27,26,20,14,75,59,39,30.56,30.47,7,1,9,0.00
2013-1-16,34,33,32,28,27,24,79,76,68,30.56,30.41,4,0,5,0.00
2013-1-17,34,32,30,28,26,24,79,78,76,30.41,30.24,4,0,5,0.00
2013-1-18,36,31,27,29,24,21,79,77,63,30.27,30.18,4,0,6,0.00
2013-1-19,34,30,27,28,24,21,78,78,77,30.27,30.21,4,0,5,0.00
2013-1-20,32,30,28,26,23,21,78,77,77,30.27,30.18,4,0,5,0.00
2013-1-21,33,29,25,28,23,19,79,78,77,30.21,30.09,5,0,6,0.00
2013-1-22,35,30,24,28,23,19,79,77,58,30.09,29.88,4,1,6,0.00
2013-1-23,39,35,31,32,27,19,79,74,51,30.12,29.82,5,0,6,0.28
2013-1-24,47,39,32,39,30,24,79,73,45,30.15,30.03,5,0,7,0.19
2013-1-25,51,46,38,45,39,32,79,78,77,30.09,29.91,2,0,4,0.36
2013-1-26,46,40,37,36,29,18,79,65,35,30.06,29.94,6,1,9,0.20
2013-1-27,43,38,35,36,29,19,79,69,39,30.12,30.03,5,0,7,0.47
2013-1-28,42,40,36,37,33,29,79,77,72,30.21,30.06,3,0,4,0.67
2013-1-29,46,43,41,39,37,34,79,78,74,30.44,30.21,3,0,4,0.75
2013-1-30,47,44,41,41,37,34,79,78,76,30.47,30.38,4,0,4,0.19
2013-1-31,52,45,40,39,32,22,78,64,32,30.38,30.27,4,0,5,0.04